• MPC Preparation (Info)

  • MPEC 2000-G08 : 2000 FN10

    The following Minor Planet Electronic Circular may be linked-to from your own Web pages, but must not otherwise be redistributed electronically.

    A form allowing access to any MPEC is at the bottom of this page.


    Read MPEC 2000-G07 Read MPEC 2000-G09


    M.P.E.C. 2000-G08                                Issued 2000 Apr. 2, 17:03 UT
    
         The Minor Planet Electronic Circulars contain information on unusual
             minor planets and routine data on comets.  They are published
       on behalf of Commission 20 of the International Astronomical Union by the
              Minor Planet Center, Smithsonian Astrophysical Observatory,
                              Cambridge, MA 02138, U.S.A.
    
                 Prepared using the Tamkin Foundation Computer Network
    
                 BMARSDEN@CFA.HARVARD.EDU or GWILLIAMS@CFA.HARVARD.EDU
              URL http://cfa-www.harvard.edu/iau/mpc.html  ISSN 1523-6714
    
                                       2000 FN10
    
    Observations:
         K00F10N* C2000 03 30.34584 13 28 44.05 -24 38 48.5          14.7        704
         K00F10N  C2000 03 30.36036 13 28 40.65 -24 41 00.2          15.0        704
         K00F10N  C2000 03 30.37716 13 28 36.76 -24 43 32.3          14.4        704
         K00F10N  C2000 03 30.41437 13 28 28.13 -24 49 09.8                      704
         K00F10N  C2000 03 30.43664 13 28 22.96 -24 52 31.2          14.3        704
         K00F10N  C2000 03 31.40923 13 24 41.90 -27 23 04.0                      670
         K00F10N  C2000 03 31.47869 13 24 28.24 -27 33 13.5          15.0 R      428
         K00F10N  C2000 03 31.48018 13 24 27.87 -27 33 27.7          15.1 R      428
         K00F10N  C2000 03 31.48167 13 24 27.49 -27 33 42.0          15.0 R      428
         K00F10N bC2000 03 31.48652 13 24 22.22 -27 35 09.3                      670
         K00F10N  C2000 03 31.94196 13 22 33.02 -28 47 30.3          14.1 R      046
         K00F10N  C2000 03 31.94299 13 22 32.75 -28 47 40.3                      046
         K00F10N  C2000 03 31.94343 13 22 32.64 -28 47 45.0          14.2 R      046
         K00F10N  C2000 03 31.94394 13 22 32.50 -28 47 49.7                      046
         K00F10N  C2000 03 31.94457 13 22 32.35 -28 47 55.4                      046
         K00F10N  C2000 03 31.94502 13 22 32.21 -28 48 00.0                      046
         K00F10N  C2000 04 01.01516 13 22 14.02 -28 59 10.7          14.1 R      620
         K00F10N  C2000 04 01.01979 13 22 12.79 -28 59 55.5          14.0 R      620
         K00F10N  C2000 04 01.02384 13 22 11.68 -29 00 34.1          14.1 R      620
         K00F10N  C2000 04 01.40111 13 20 33.85 -30 01 11.2                      670
         K00F10N  C2000 04 01.40264 13 20 33.41 -30 01 25.9                      670
         K00F10N  C2000 04 01.45317 13 20 23.49 -30 08 49.6          14.9 R      428
         K00F10N  C2000 04 01.45994 13 20 21.62 -30 09 55.8          14.8 R      428
         K00F10N  C2000 04 01.64059 13 19 31.21 -30 40 00.0                      349
         K00F10N  C2000 04 01.64260 13 19 30.61 -30 40 20.1                      349
         K00F10N  C2000 04 01.64325 13 19 30.43 -30 40 26.6          15.1 V      349
         K00F10N  C2000 04 01.64632 13 19 29.60 -30 40 56.5                      349
         K00F10N  C2000 04 01.94954 13 18 08.14 -31 30 27.4                      151
         K00F10N  C2000 04 01.95244 13 18 07.14 -31 30 53.4                      151
         K00F10N  C2000 04 01.95535 13 18 06.22 -31 31 24.0                      151
         K00F10N  C2000 04 01.95760 13 18 05.55 -31 31 44.6                      151
         K00F10N  C2000 04 01.96213 13 18 04.36 -31 32 28.0                      151
         K00F10N  C2000 04 01.96733 13 18 02.74 -31 33 20.9                      151
         K00F10N  C2000 04 02.07118 13 17 35.18 -31 49 41.8          15.5 V      860
         K00F10N  C2000 04 02.07209 13 17 34.96 -31 49 50.1          15.3 V      860
         K00F10N  C2000 04 02.07300 13 17 34.70 -31 49 58.8          15.1 V      860
         K00F10N  C2000 04 02.07392 13 17 34.40 -31 50 07.7          15.1 V      860
         K00F10N  C2000 04 02.07484 13 17 34.11 -31 50 16.8          14.8 V      860
    
    Observer details:
    046 Klet.  Observers J. Ticha, M. Tichy.  0.57-m f/5.2 reflector + CCD.
    151 Eschenberg Observatory, Winterthur.  Observer M. Griesser.  0.25-m f/8.0
        reflector + CCD.
    349 Ageo.  Observer K. Kadota.  0.18-m f/5.5 reflector + CCD.
    428 Reedy Creek.  Observer J. Broughton.  0.25-m f/6.3 Schmidt-Cassegrain
        + CCD.
    620 Observatorio Astronomico de Mallorca.  Observers A. Lopez, R. Pacheco.
        0.30-m f/3.3 Schmidt-Cassegrain + CCD.
    670 Camarillo.  Observer J. E. Rogers.  0.30-m f/6.7 Helin Telescope + CCD.
    704 Lincoln Laboratory ETS, New Mexico.  Observers M. Blythe, F. Shelly,
        M. Bezpalko, M. Elowitz, R. Huber.  Measurers J. Stuart, H. Viggh,
        R. Sayer, J. B. Evans.  1.0-m f/2.15 reflector + CCD.
    860 Valinhos.  Observer P. R. Holvorcem.  0.36-m f/3.6 Schmidt-Cassegrain
        + CCD.
    
    Orbital elements:
    2000 FN10
    Epoch 2000 Mar. 17.0 TT = JDT 2451620.5                 Williams
    M 336.37879              (2000.0)            P               Q
    n   0.37597554     Peri.  235.38845     -0.45446734     +0.88831522
    a   1.9012081      Node     8.41083     -0.59514482     -0.24768227
    e   0.4466377      Incl.   26.82037     -0.66276849     -0.38671638
    P   2.62           H   17.1           G   0.15
    From 38 observations 2000 Mar. 30-Apr. 2.
    
    Ephemeris:
    2000 FN10                a,e,i = 1.90, 0.45, 27                  q = 1.0521
    Date    TT    R. A. (2000) Decl.     Delta      r     Elong.  Phase     V
    2000 03 27    13 39.08   -16 44.1    0.216    1.199   156.8    19.1    15.1
    2000 04 01    13 22.30   -28 55.9    0.193    1.175   153.9    22.0    14.9
    2000 04 06    12 55.42   -42 48.5    0.182    1.153   143.7    31.0    15.0
    2000 04 11    12 11.85   -56 02.0    0.186    1.132   130.5    42.3    15.4
    2000 04 16    11 02.00   -66 01.5    0.202    1.113   118.2    52.6    15.8
    2000 04 21    09 24.0    -71 18.3    0.226    1.097   108.2    60.5    16.2
    2000 04 26    07 44.7    -72 16.5    0.254    1.082   100.6    66.0    16.6
    2000 05 01    06 32.2    -70 55.7    0.285    1.071    95.0    69.6    17.0
    2000 05 06    05 45.65   -68 54.7    0.317    1.062    90.8    71.8    17.3
    2000 05 11    05 15.14   -66 54.8    0.348    1.056    87.8    72.9    17.5
    2000 05 16    04 53.89   -65 07.5    0.378    1.053    85.7    73.3    17.7
    2000 05 21    04 38.19   -63 34.3    0.407    1.052    84.3    73.1    17.8
    2000 05 26    04 25.98   -62 14.1    0.433    1.055    83.4    72.5    17.9
    2000 05 31    04 16.05   -61 05.7    0.457    1.061    83.1    71.6    18.0
    2000 06 05    04 07.60   -60 08.4    0.478    1.069    83.2    70.4    18.1
    2000 06 10    04 00.02   -59 21.2    0.497    1.081    83.8    69.1    18.2
    2000 06 15    03 52.90   -58 43.4    0.512    1.095    84.7    67.5    18.2
    2000 06 20    03 45.90   -58 14.6    0.525    1.111    86.0    65.9    18.3
    2000 06 25    03 38.70   -57 54.9    0.535    1.129    87.7    64.1    18.3
    2000 06 30    03 30.96   -57 44.3    0.542    1.150    89.7    62.1    18.3
    2000 07 05    03 22.27   -57 42.5    0.547    1.172    92.1    60.1    18.3
    2000 07 10    03 12.20   -57 48.5    0.550    1.196    94.9    57.9    18.3
    2000 07 15    03 00.34   -58 00.5    0.551    1.222    98.0    55.5    18.3
    2000 07 20    02 46.27   -58 16.3    0.551    1.248   101.4    52.9    18.2
    2000 07 25    02 29.55   -58 32.4    0.550    1.276   105.2    50.2    18.2
    2000 07 30    02 09.85   -58 43.8    0.549    1.304   109.4    47.2    18.2
    
    2000 08 09    01 21.60   -58 23.8    0.549    1.363   118.4    40.9    18.1
    2000 08 19    00 26.73   -56 18.3    0.560    1.424   127.5    34.3    18.0
    2000 08 24    00 00.18   -54 25.9    0.571    1.455   131.7    31.2    18.0
    2000 09 03    23 15.01   -49 14.0    0.610    1.517   137.9    26.5    18.1
    2000 09 13    22 43.55   -42 55.8    0.672    1.579   139.8    24.3    18.4
    2000 09 23    22 24.48   -36 32.5    0.758    1.641   137.1    24.6    18.7
    2000 10 03    22 14.73   -30 40.5    0.866    1.702   131.5    26.1    19.1
    2000 10 13    22 11.63   -25 32.2    0.993    1.762   124.6    27.8    19.5
    2000 10 23    22 13.14   -21 06.0    1.135    1.821   117.4    29.0    19.9
    2000 11 02    22 17.95   -17 14.9    1.289    1.878   110.1    29.7    20.3
    2000 11 12    22 25.15   -13 51.0    1.453    1.934   103.0    29.9    20.6
    2000 11 22    22 34.08   -10 47.8    1.622    1.987    96.1    29.6    20.9
    2000 12 02    22 44.33   -07 59.6    1.796    2.040    89.4    28.9    21.2
    2000 12 12    22 55.57   -05 22.5    1.970    2.090    82.8    27.9    21.4
    2000 12 22    23 07.57   -02 53.5    2.144    2.138    76.4    26.6    21.6
    2001 01 01    23 20.18   -00 30.4    2.315    2.185    70.1    25.0    21.8
    2001 01 11    23 33.26   +01 48.3    2.481    2.230    63.8    23.3    21.9
    2001 01 21    23 46.72   +04 03.5    2.641    2.273    57.7    21.5    22.0
    
    Gareth V. Williams           (C) Copyright 2000 MPC           M.P.E.C. 2000-G08
    

    Read MPEC 2000-G07 Read MPEC 2000-G09


    MPEC number:

    Enter an MPEC number in one of the following forms:

    • 1997-B01 (the full form)
    • J97B01 (the packed version of the full form)
    • B01 (the abbreviated form)